Skip Page Navigation
NASA JPL Caltech
NASA Logo - Jet Propulsion Laboratory + View the NASA Portal
+ Near-Earth Object (NEO) Program
Search JPL
JPL Home Earth Solar System Stars & Galaxies Technology
JPL Solar System Dynamics
BODIES ORBITS EPHEMERIDES TOOLS PHYSICAL DATA DISCOVERY FAQ SITE MAP
JPL Small-Body Database Browser
Search: [ help ]  
7534 (1995 UA7)
Classification: Main-belt Asteroid          SPK-ID: 2007534
Ephemeris | Orbit Diagram | Orbital Elements | Physical Parameters | Discovery Circumstances | Close-Approach Data ]

[ show orbit diagram ]
Orbital Elements at Epoch 2456800.5 (2014-May-23.0) TDB
Reference: JPL 7 (heliocentric ecliptic J2000)
 Element Value Uncertainty (1-sigma)   Units 
e .2493805285876609 7.05e-08  
a 2.296129980575969 1.3666e-08 AU
q 1.723519872313958 1.604e-07 AU
i 5.671809398904736 6.916e-06 deg
node 97.8721560023378 5.4429e-05 deg
peri 204.0094866971793 5.5319e-05 deg
M 197.0901226013063 1.2666e-05 deg
tp 2457375.592954081205
(2015-Dec-19.09295408)
4.7586e-05 JED
period 1270.846597978557
3.48
1.1346e-05
3.106e-08
d
yr
n .2832757317622959 2.5291e-09 deg/d
Q 2.868740088837979 1.7075e-08 AU
  Orbit Determination Parameters
   # obs. used (total)      1205  
   data-arc span      9274 days (25.39 yr)  
   first obs. used      1988-11-04  
   last obs. used      2014-03-27  
   planetary ephem.      DE431  
   SB-pert. ephem.      SB431-BIG16  
   condition code      0  
   fit RMS      .52584  
   data source      ORB  
   producer      Otto Matic  
   solution date      2014-Apr-17 13:52:47  

Additional Information
 Earth MOID = .709015 AU 
 T_jup = 3.546 
[ show covariance matrix ]

Ephemeris | Orbit Diagram | Orbital Elements | Physical Parameters | Discovery Circumstances | Close-Approach Data ]

Physical Parameter Table
Parameter Symbol Value Units Sigma Reference Notes
absolute magnitude H 13.5 mag n/a MPO247435  

7534 (1995 UA7)          Discovered 1995-Oct-26 by Shimizu, Y., Urata, T. at Nachi-Katsuura
Reference: DISCOVERY.DBLast Updated: 2003-08-29

[ show close-approach data ]
Alternate Designations
 1995 UA7 = 1988 VF13 = 1991 NW = 1993 BS1 = 1998 MX46 
Ephemeris | Orbit Diagram | Orbital Elements | Physical Parameters | Discovery Circumstances | Close-Approach Data ]
ABOUT SSD CREDITS/AWARDS PRIVACY/COPYRIGHT GLOSSARY LINKS
FirstGov 2014-Apr-23 11:52 UT
(server date/time)  
NASA Home Page
Site Manager:   Donald K. Yeomans
Webmaster  Alan B. Chamberlin